Location: *
(45.5667°S, 177.5167°W)
Time: 03:02:22
(UTC+00:00)

Daily predictions for brighter satellites

Satellite Brightness Start Highest point End
(mag) Time Altitude Azimuth Time Altitude Azimuth Time Altitude Azimuth
Cosmos 1302 Rocket 4.1 04:44:38 10° N 04:49:50 69° ENE 04:55:07 10° SSE
COSMOS 2406 3.6 04:46:49 10° N 04:52:15 47° ENE 04:57:42 10° SE
COSMO-SKYMED 1 2.6 04:48:57 10° NNE 04:53:20 71° ESE 04:57:45 10° S
Cosmos 2173 Rocket 4.2 04:53:19 10° S 04:59:35 51° ESE 05:05:40 10° NNE
Cosmos 1833 Rocket 2.7 04:54:19 10° NNW 04:59:59 86° ENE 05:05:44 10° SSE
Cosmos 1782 3.5 04:56:58 10° S 05:00:38 33° ESE 05:04:16 10° NE
SJ-12 4.0 04:59:34 10° SSE 05:03:49 90° WNW 05:07:58 10° NNW
USA 305 2.9 05:01:39 10° SW 05:05:52 66° SSE 05:10:03 10° ENE
Cosmos 1992 Rocket 4.4 05:01:15 10° N 05:06:10 43° ENE 05:11:09 10° SSE
SeaSat 1 3.6 05:01:53 10° SSE 05:06:34 42° SW 05:11:12 10° WNW
Cosmos 1486 Rocket 4.3 05:02:03 10° SSW 05:07:16 48° ESE 05:12:27 10° NE
Cosmos 2360 Rocket 4.0 05:06:22 10° SSE 05:07:47 11° SE 05:09:11 10° SE
CZ-2C R/B 4.3 05:02:38 10° NNW 05:07:54 40° W 05:13:08 10° SSW
Cosmos 1727 Rocket 4.0 05:03:02 10° N 05:09:18 88° E 05:15:37 10° S
Cosmos 1933 3.4 05:05:20 10° S 05:09:23 54° ESE 05:13:23 10° NNE
Cosmos 2278 4.3 05:04:32 10° SSW 05:09:46 35° SE 05:14:56 10° ENE
Lacrosse 5 rocket 3.1 05:07:23 10° SW 05:10:08 17° S 05:12:32 11° SE
Cosmos 192 4.5 05:05:21 10° NNW 05:10:19 82° WSW 05:15:22 10° SSE
SMAP 4.4 05:07:03 10° SE 05:10:28 19° E 05:13:49 10° NE
Cosmos 1939 Rocket 3.6 05:07:26 10° SSE 05:11:00 32° E 05:14:29 10° NNE
Cosmos 1151 Rocket 4.4 05:13:53 10° SSE 05:17:06 19° ESE 05:20:15 10° ENE
Cosmos 1076 Rocket 3.5 05:14:16 10° N 05:18:38 75° E 05:23:03 10° SSE
BREEZE-M DEB (TANK) 3.4 05:12:12 10° WSW 05:21:29 63° NW 05:24:48 10° NE
Cosmos 1802 Rocket 4.1 05:15:28 10° S 05:21:54 59° ESE 05:28:17 10° NNE
Meteor 2-3 Rocket 3.7 05:17:26 10° N 05:23:03 78° E 05:28:48 10° SSE
Cosmos 1459 Rocket 4.0 05:16:50 10° S 05:23:05 73° E 05:29:21 10° NNE
USA 281 4.1 05:21:20 10° SE 05:26:57 28° ENE 05:32:31 10° NNE
Cosmos 968 Rocket 4.2 05:21:47 10° SSW 05:27:02 59° WNW 05:32:11 10° N
Orbus 7S? 4.3 05:23:45 10° SW 05:27:17 23° SSE 05:28:30 18° SE
ATLAS 2AS CENTAUR R/B 3.6 05:21:17 10° SW 05:28:13 57° WNW 05:35:33 10° NNE
CZ-4B R/B 4.2 05:27:06 10° S 05:31:36 81° WSW 05:35:55 10° NNW
ARGOS 4.5 05:30:54 17° ESE 05:32:21 19° E 05:36:04 10° NE
Cosmos 1812 2.8 05:28:53 10° S 05:32:44 55° ESE 05:36:31 10° NNE
Cosmos 2221 4.1 05:29:01 10° SSW 05:33:12 40° W 05:37:20 10° NNW
Cosmos 2100 Rocket 4.1 05:29:20 10° S 05:35:44 84° W 05:41:57 10° N
CZ-4B R/B 3.6 05:34:48 20° SE 05:36:36 29° E 05:40:04 10° NNE
Cosmos 1503 Rocket 4.1 05:32:06 10° SSW 05:37:13 50° ESE 05:42:16 10° NE
CZ-2C R/B 3.8 05:32:30 10° S 05:37:13 51° WSW 05:42:01 10° NW
SJ 16-02 2.3 05:33:27 10° S 05:37:16 27° ESE 05:39:38 17° ENE
Cosmos 1980 Rocket 2.2 05:35:08 10° SSW 05:40:50 88° ESE 05:46:28 10° NNE
Meteor 2-6 Rocket 4.4 05:35:51 10° S 05:41:16 46° ESE 05:46:31 10° NE
CZ-4C R/B 3.4 05:41:32 10° NE 05:44:31 34° ESE 05:47:37 10° S
USA 306 3.1 05:43:45 10° WSW 05:47:58 69° NW 05:52:09 10° NE
Aureole 1 Rocket 4.0 05:41:50 10° SSW 05:49:09 84° WNW 05:54:42 10° NNE
H-2A R/B 4.2 05:52:26 12° SSE 05:52:26 12° SSE 05:52:59 10° SSE
Cosmos 2322 Rocket 3.2 05:45:26 10° S 05:50:13 26° SE 05:51:23 24° ESE
RESURS DK-1 2.4 05:47:29 10° SSW 05:51:43 83° WNW 05:55:53 10° NNE
USA 307 3.0 05:49:02 10° WSW 05:53:16 72° NW 05:56:49 14° NE
Cosmos 2082 Rocket 2.2 05:48:39 10° NNW 05:54:18 84° WSW 05:59:35 12° SSE
Cosmos 2369 4.2 05:50:42 10° SSW 05:56:22 63° WNW 06:01:57 10° N
Cosmos 1697 Rocket 4.4 05:53:11 10° SW 05:58:20 36° WNW 06:03:26 10° N
H-2A R/B 2.0 05:55:24 12° SSE 06:00:02 54° E 06:04:52 10° N
USA 215 3.2 05:53:56 10° ENE 06:00:33 82° SE 06:07:12 10° SW
Cosmos 2333 Rocket 4.0 05:57:36 10° S 05:59:59 15° SSE 05:59:59 15° SSE
Cosmos 2123 Rocket 4.0 05:56:09 10° N 06:02:32 89° E 06:08:58 10° S
ERBS 2.5 06:00:17 10° SW 06:03:04 46° SSE 06:03:04 46° SSE
Cosmos 1862 3.2 06:00:45 10° N 06:04:43 71° E 06:07:13 22° SSE
Cosmos 1766 Rocket 4.0 06:00:46 10° NNE 06:04:48 38° E 06:04:50 38° E
Cosmos 2061 Rocket 4.0 05:58:45 10° S 06:05:14 87° E 06:11:33 10° N
Cosmos 1725 Rocket 4.0 05:59:15 10° S 06:05:35 89° W 06:11:55 10° N
Lacrosse 5 2.6 06:00:59 10° SW 06:05:42 35° SSE 06:06:47 31° SE
Okean 3 Rocket 4.4 06:02:05 10° NNE 06:05:27 32° ENE 06:05:27 32° ENE
CZ-2C R/B 3.2 06:04:49 10° NW 06:07:15 16° N 06:08:37 14° NNE
ADEOS 3.6 06:04:57 10° SSE 06:10:17 84° WSW 06:15:33 10° NNW
Cosmos 2219 Rocket 4.2 06:07:31 10° S 06:08:49 12° SSE 06:08:49 12° SSE
CORIOLIS 4.2 06:05:10 12° SSE 06:10:19 60° E 06:15:44 10° N
FengYun 1-2 T 4.3 06:04:50 10° SSE 06:10:28 81° WSW 06:16:00 10° NNW
NOAA 12 4.4 06:05:36 10° S 06:10:57 69° WSW 06:16:13 10° NNW
IRIDIUM 114 4.5 06:09:28 10° NNE 06:14:30 49° E 06:18:42 15° SSE
Cosmos 2084 3.6 06:10:14 10° NNW 06:15:03 77° NE 06:16:41 42° SE
Cosmos 967 Rocket 4.5 06:13:06 10° NW 06:19:22 83° WSW 06:23:15 25° SSE
IRIDIUM 103 4.3 06:18:28 10° NNE 06:23:37 59° E 06:27:48 16° SSE
USA 308 4.0 06:20:04 10° WSW 06:24:05 43° NW 06:26:33 20° NNE
Cosmos 1867 4.4 06:19:35 10° SSW 06:23:54 32° SSE 06:23:54 32° SSE
AQUARIUS 4.1 06:25:01 29° SSE 06:27:23 88° E 06:31:56 10° NNW
SL-16 R/B 2.1 06:26:07 10° SSW 06:31:49 64° ESE 06:33:22 46° ENE
NOAA 6 3.9 06:29:17 28° SSE 06:32:08 80° ENE 06:37:17 10° NNW
GEOS 3 Rocket 4.5 06:38:59 34° NNE 06:38:59 34° NNE 06:42:43 10° N
Cosmos 2237 4.4 06:32:45 10° SSW 06:37:59 50° SE 06:37:59 50° SE
Cosmos 1777 Rocket 3.9 06:34:28 10° SSW 06:39:47 88° ESE 06:42:24 31° NNE
IRIDIUM 106 4.2 06:36:37 10° N 06:41:53 84° E 06:45:56 18° S
SMAP 3.8 06:44:40 17° S 06:48:06 51° WSW 06:52:38 10° NW
Lacrosse 5 rocket 3.2 06:46:27 10° SW 06:48:05 21° SSW 06:48:05 21° SSW
Cosmos 2360 Rocket 3.2 06:47:53 10° SSW 06:51:15 32° S 06:51:15 32° S
Cosmos 1151 Rocket 4.1 06:50:38 10° SSW 06:54:53 44° W 06:59:03 10° NNW
Cosmos 1447 Rocket 4.5 06:49:48 10° N 06:55:59 80° W 07:02:15 10° S
CZ-4B DEB 4.1 06:59:36 75° NNE 06:59:36 75° NNE 07:04:41 10° NNW
ATLAS 5 CENTAUR R/B 4.3 06:56:58 10° N 06:59:37 20° NNE 06:59:37 20° NNE
SL-8 R/B 4.3 06:59:17 10° WNW 07:03:00 53° NW 07:03:00 53° NW
Meteor 1-27 Rocket 3.6 06:59:22 10° SSW 07:04:59 85° W 07:04:59 85° W
Cosmos 1891 Rocket 4.4 07:00:39 10° S 07:06:48 76° SE 07:06:48 76° SE
USA 281 3.6 07:08:10 28° SSE 07:11:49 63° WSW 07:18:20 10° NW
ARGOS 3.4 07:12:25 59° SW 07:13:05 65° WSW 07:18:26 10° NNW
SJ 16-02 2.9 07:11:51 10° SW 07:15:51 33° W 07:16:45 30° NW
Cosmos 2322 Rocket 3.1 07:29:02 10° SSW 07:33:16 46° WSW 07:33:16 46° WSW
H-2A R/B 4.2 07:36:01 13° SSW 07:39:04 21° WSW 07:42:43 10° WNW
Cosmos 2082 Rocket 4.5 07:35:34 10° W 07:39:17 18° SW 07:41:28 15° SSW
Cosmos 2333 Rocket 4.3 07:40:34 10° SSW 07:42:01 18° SSW 07:42:01 18° SSW
Lacrosse 5 3.9 07:43:55 10° SW 07:46:00 24° WSW 07:46:00 24° WSW
SL-16 R/B 4.4 08:11:13 10° SW 08:15:20 21° W 08:15:20 21° W
